CW7104 Weather Reports


Display with metric or nautical units.
time (UTC)temp
F
wind
direction
speed
MPH
gust
MPH
rain 1hr
in
rain 24hr
in
rain mn
in
humidity
%
barometer
mb
20260901180904 96 236 3.0 7.0 0.00 0.00 0.00 47 1017.0
20260901180404 95 255 2.0 7.0 0.00 0.00 0.00 48 1017.2
20260901175904 95 276 1.0 6.0 0.00 0.00 0.00 47 1017.2
20260901175404 96 343 1.0 8.0 0.00 0.00 0.00 46 1017.2
20260901174404 95 266 1.0 6.0 0.00 0.00 0.00 47 1017.4
20260901173905 95 274 5.0 9.0 0.00 0.00 0.00 46 1017.4
20260901173404 95 289 1.0 6.0 0.00 0.00 0.00 46 1017.4
20260901172904 95 289 1.0 7.0 0.00 0.00 0.00 45 1017.4
20260901172404 96 283 3.0 6.0 0.00 0.00 0.00 46 1017.5
20260901171904 96 208 1.0 8.0 0.00 0.00 0.00 47 1017.5
20260901171404 96 253 0.0 6.0 0.00 0.00 0.00 47 1017.6
20260901170904 95 221 3.0 8.0 0.00 0.00 0.00 47 1017.7
20260901170404 95 300 4.0 8.0 0.00 0.00 0.00 48 1017.7
20260901165404 95 279 3.0 9.0 0.00 0.00 0.00 49 1017.8
20260901164404 94 232 2.0 12.0 0.00 0.00 0.00 50 1017.9
20260901163404 94 248 3.0 12.0 0.00 0.00 0.00 51 1018.1
20260901162904 94 268 1.0 8.0 0.00 0.00 0.00 51 1018.1
20260901162404 94 280 5.0 13.0 0.00 0.00 0.00 52 1018.2
20260901161904 93 260 3.0 12.0 0.00 0.00 0.00 52 1018.2
20260901161405 93 218 1.0 7.0 0.00 0.00 0.00 53 1018.2
20260901160905 93 273 2.0 10.0 0.00 0.00 0.00 54 1018.1
20260901160404 93 233 0.0 9.0 0.00 0.00 0.00 54 1018.1
20260901155904 93 253 1.0 7.0 0.00 0.00 0.00 55 1018.1
20260901155404 92 273 1.0 5.0 0.00 0.00 0.00 55 1018.2
20260901154404 91 214 3.0 7.0 0.00 0.00 0.00 56 1018.2
20260901153404 91 206 3.0 8.0 0.00 0.00 0.00 57 1018.3
20260901152904 91 284 2.0 7.0 0.00 0.00 0.00 58 1018.3
20260901152404 91 249 1.0 5.0 0.00 0.00 0.00 57 1018.4
20260901151903 90 234 3.0 8.0 0.00 0.00 0.00 57 1018.4
20260901151405 90 256 2.0 6.0 0.00 0.00 0.00 58 1018.4
20260901150904 89 268 4.0 10.0 0.00 0.00 0.00 60 1018.4
20260901150404 89 197 1.0 6.0 0.00 0.00 0.00 61 1018.4
20260901145904 88 236 1.0 5.0 0.00 0.00 0.00 61 1018.4
20260901145404 87 219 1.0 7.0 0.00 0.00 0.00 63 1018.4
20260901143904 86 249 2.0 6.0 0.00 0.00 0.00 65 1018.4
20260901143404 85 274 3.0 7.0 0.00 0.00 0.00 65 1018.4
20260901142404 84 224 0.0 6.0 0.00 0.00 0.00 69 1018.4
20260901141904 84 219 0.0 0.0 0.00 0.00 0.00 71 1018.4
20260901141403 83 219 0.0 0.0 0.00 0.00 0.00 70 1018.4
20260901140904 83 197 0.0 0.0 0.00 0.00 0.00 71 1018.5
20260901140403 82 202 0.0 0.0 0.00 0.00 0.00 73 1018.4
20260901135904 81 257 0.0 0.0 0.00 0.00 0.00 75 1018.4
20260901135404 80 215 0.0 0.0 0.00 0.00 0.00 77 1018.4
20260901134904 79 179 0.0 0.0 0.00 0.00 0.00 79 1018.4
20260901134404 79 188 0.0 2.0 0.00 0.00 0.00 80 1018.4
20260901133904 78 173 2.0 5.0 0.00 0.00 0.00 81 1018.4
20260901133404 78 190 0.0 0.0 0.00 0.00 0.00 82 1018.5
20260901132904 77 192 0.0 0.0 0.00 0.00 0.00 82 1018.5
20260901132404 76 192 0.0 0.0 0.00 0.00 0.00 82 1018.5
20260901131904 76 200 0.0 0.0 0.00 0.00 0.00 82 1018.5
20260901131404 75 200 0.0 0.0 0.00 0.00 0.00 82 1018.6
20260901130904 75 199 0.0 0.0 0.00 0.00 0.00 82 1018.5
20260901130404 74 199 0.0 0.0 0.00 0.00 0.00 82 1018.5
20260901125904 74 200 0.0 0.0 0.00 0.00 0.00 82 1018.4
20260901125404 73 200 0.0 0.0 0.00 0.00 0.00 82 1018.5
20260901124904 73 200 0.0 0.0 0.00 0.00 0.00 82 1018.5
20260901124403 72 201 0.0 0.0 0.00 0.00 0.00 82 1018.5
20260901123904 72 201 0.0 0.0 0.00 0.00 0.00 82 1018.5
20260901123404 71 201 0.0 0.0 0.00 0.00 0.00 82 1018.5
20260901122904 71 201 0.0 0.0 0.00 0.00 0.00 82 1018.5
20260901122403 71 200 0.0 0.0 0.00 0.00 0.00 82 1018.5
20260901121904 70 205 0.0 0.0 0.00 0.00 0.00 82 1018.5
20260901121404 70 204 0.0 0.0 0.00 0.00 0.00 82 1018.4
20260901120904 70 204 0.0 0.0 0.00 0.00 0.00 82 1018.3
20260901120403 70 204 0.0 0.0 0.00 0.00 0.00 82 1018.2
20260901115904 69 205 0.0 0.0 0.00 0.00 0.00 82 1018.2
20260901115404 69 204 0.0 0.0 0.00 0.00 0.00 82 1018.2
20260901114904 69 204 0.0 0.0 0.00 0.00 0.00 82 1018.1
20260901114403 69 205 0.0 0.0 0.00 0.00 0.00 82 1018.0
20260901113903 69 204 0.0 0.0 0.00 0.00 0.00 82 1017.9
20260901113404 69 204 0.0 0.0 0.00 0.00 0.00 82 1017.8
20260901112904 69 204 0.0 0.0 0.00 0.00 0.00 82 1017.7
20260901112403 69 205 0.0 0.0 0.00 0.00 0.00 82 1017.6
20260901111903 69 204 0.0 0.0 0.00 0.00 0.00 82 1017.5
20260901111404 69 204 0.0 0.0 0.00 0.00 0.00 82 1017.5
20260901110904 70 205 0.0 0.0 0.00 0.00 0.00 82 1017.5
20260901105904 70 204 0.0 0.0 0.00 0.00 0.00 82 1017.4
20260901105403 70 204 0.0 0.0 0.00 0.00 0.00 82 1017.4
20260901103904 70 205 0.0 0.0 0.00 0.00 0.00 82 1017.4
20260901103403 70 205 0.0 0.0 0.00 0.00 0.00 82 1017.4
20260901102904 70 205 0.0 0.0 0.00 0.00 0.00 82 1017.4
20260901101403 70 205 0.0 0.0 0.00 0.00 0.00 82 1017.2
20260901100904 70 205 0.0 0.0 0.00 0.00 0.00 82 1017.1
20260901100403 70 205 0.0 0.0 0.00 0.00 0.00 82 1017.1
20260901095904 70 205 0.0 0.0 0.00 0.00 0.00 82 1017.1
20260901095404 70 205 0.0 0.0 0.00 0.00 0.00 82 1017.1
20260901094404 70 205 0.0 0.0 0.00 0.00 0.00 82 1017.0
20260901093903 70 205 0.0 0.0 0.00 0.00 0.00 82 1017.0
20260901093404 70 205 0.0 0.0 0.00 0.00 0.00 82 1017.0
20260901092903 70 205 0.0 0.0 0.00 0.00 0.00 82 1016.9
20260901092404 70 205 0.0 0.0 0.00 0.00 0.00 82 1016.9
20260901091903 70 205 0.0 0.0 0.00 0.00 0.00 82 1017.0
20260901091403 70 205 0.0 0.0 0.00 0.00 0.00 82 1016.9
20260901090905 70 205 0.0 0.0 0.00 0.00 0.00 82 1016.9
20260901090405 71 205 0.0 0.0 0.00 0.00 0.00 81 1016.8
20260901085405 71 205 0.0 0.0 0.00 0.00 0.00 81 1016.8
20260901084906 71 205 0.0 0.0 0.00 0.00 0.00 81 1016.7
20260901084405 71 205 0.0 0.0 0.00 0.00 0.00 81 1016.7
20260901083905 71 205 0.0 0.0 0.00 0.00 0.00 81 1016.7
20260901082405 71 205 0.0 0.0 0.00 0.00 0.00 82 1016.6
20260901081905 71 205 0.0 0.0 0.00 0.00 0.00 82 1016.7
20260901080906 71 205 0.0 0.0 0.00 0.00 0.00 82 1016.6
20260901080405 72 205 0.0 0.0 0.00 0.00 0.00 81 1016.6
20260901075905 72 205 0.0 0.0 0.00 0.00 0.00 81 1016.6
20260901074905 72 205 0.0 0.0 0.00 0.00 0.00 81 1016.6
20260901074406 72 205 0.0 0.0 0.00 0.00 0.00 81 1016.6
20260901073905 72 205 0.0 0.0 0.00 0.00 0.00 81 1016.4
20260901073405 71 205 0.0 0.0 0.00 0.00 0.00 81 1016.5
20260901072405 71 205 0.0 0.0 0.00 0.00 0.00 81 1016.5
20260901071905 71 205 0.0 0.0 0.00 0.00 0.00 81 1016.6
20260901071405 72 205 0.0 0.0 0.00 0.00 0.00 80 1016.6
20260901070905 72 205 0.0 0.0 0.00 0.00 0.00 80 1016.6
20260901070405 72 205 0.0 0.0 0.00 0.00 0.00 80 1016.6
20260901065905 72 205 0.0 0.0 0.00 0.00 0.00 80 1016.6
20260901065405 72 205 0.0 0.0 0.00 0.00 0.00 80 1016.6
20260901064905 72 205 0.0 0.0 0.00 0.00 0.00 80 1016.7
20260901064405 73 205 0.0 0.0 0.00 0.00 0.00 79 1016.7
20260901063404 73 205 0.0 0.0 0.00 0.00 0.00 79 1016.7
20260901062905 73 205 0.0 0.0 0.00 0.00 0.00 79 1016.7
20260901061905 74 205 0.0 0.0 0.00 0.00 0.00 79 1016.8
20260901061405 74 205 0.0 0.0 0.00 0.00 0.00 79 1016.8
20260901060905 74 205 0.0 0.0 0.00 0.00 0.00 79 1016.9
20260901060405 74 205 0.0 0.0 0.00 0.00 0.00 79 1016.9
20260901055905 75 205 0.0 0.0 0.00 0.00 0.00 79 1016.9
20260901055405 75 205 0.0 0.0 0.00 0.00 0.00 79 1016.9
20260901054905 75 205 0.0 0.0 0.00 0.00 0.00 79 1016.9
20260901054405 75 205 0.0 0.0 0.00 0.00 0.00 79 1016.9
20260901053905 75 205 0.0 0.0 0.00 0.00 0.00 79 1016.9
20260901053405 75 205 0.0 0.0 0.00 0.00 0.00 79 1016.9
20260901052905 75 205 0.0 0.0 0.00 0.00 0.00 79 1016.8
20260901052405 75 205 0.0 0.0 0.00 0.00 0.00 78 1016.8
20260901051905 76 205 0.0 0.0 0.00 0.00 0.00 78 1016.8
20260901050905 76 205 0.0 0.0 0.00 0.00 0.00 78 1016.7
20260901050405 76 205 0.0 0.0 0.00 0.00 0.00 78 1016.7
20260901045405 76 205 0.0 0.0 0.00 0.00 0.00 77 1016.6
20260901044905 77 205 0.0 0.0 0.00 0.00 0.00 77 1016.5
20260901044405 77 205 0.0 0.0 0.00 0.00 0.00 77 1016.5
20260901043904 77 205 0.0 0.0 0.00 0.00 0.00 76 1016.5
20260901043405 77 205 0.0 0.0 0.00 0.00 0.00 76 1016.5
20260901042905 77 205 0.0 0.0 0.00 0.00 0.00 75 1016.6
20260901041905 77 205 0.0 0.0 0.00 0.00 0.00 75 1016.6
20260901041404 77 205 0.0 0.0 0.00 0.00 0.00 75 1016.6
20260901040905 77 205 0.0 0.0 0.00 0.00 0.00 75 1016.6
20260901040405 78 205 0.0 0.0 0.00 0.00 0.00 74 1016.6
20260901035905 78 205 0.0 0.0 0.00 0.00 0.00 74 1016.7
20260901035405 78 205 0.0 0.0 0.00 0.00 0.00 73 1016.6
20260901034905 78 205 0.0 0.0 0.00 0.00 0.00 73 1016.7
20260901034405 78 205 0.0 0.0 0.00 0.00 0.00 73 1016.7
20260901033405 78 205 0.0 0.0 0.00 0.00 0.00 72 1016.8
20260901032905 78 205 0.0 0.0 0.00 0.00 0.00 72 1016.8
20260901032405 79 205 0.0 0.0 0.00 0.00 0.00 72 1016.8
20260901031904 79 205 0.0 0.0 0.00 0.00 0.00 72 1016.9
20260901031405 79 205 0.0 0.0 0.00 0.00 0.00 72 1016.8
20260901030905 79 205 0.0 0.0 0.00 0.00 0.00 71 1016.9
20260901030405 79 205 0.0 0.0 0.00 0.00 0.00 71 1016.9
20260901024905 80 205 0.0 0.0 0.00 0.00 0.00 70 1016.7
20260901024405 80 205 0.0 0.0 0.00 0.00 0.00 70 1016.7
20260901023905 80 205 0.0 0.0 0.00 0.00 0.00 70 1016.7
20260901023405 80 205 0.0 0.0 0.00 0.00 0.00 70 1016.8
20260901022904 80 205 0.0 0.0 0.00 0.00 0.00 69 1016.8
20260901021905 81 205 0.0 0.0 0.00 0.00 0.00 69 1016.6
20260901021404 81 205 0.0 0.0 0.00 0.00 0.00 69 1016.6
20260901020905 81 205 0.0 0.0 0.00 0.00 0.00 69 1016.7
20260901020405 81 205 0.0 0.0 0.00 0.00 0.00 69 1016.7
20260901015904 81 205 0.0 0.0 0.00 0.00 0.00 68 1016.7
20260901014404 82 205 0.0 0.0 0.00 0.00 0.00 66 1016.5
20260901013905 82 205 0.0 0.0 0.00 0.00 0.00 65 1016.5
20260901013405 83 205 0.0 0.0 0.00 0.00 0.00 65 1016.4
20260901012904 83 205 0.0 0.0 0.00 0.00 0.00 64 1016.4
20260901012405 83 205 0.0 0.0 0.00 0.00 0.00 63 1016.4
20260901011904 84 205 0.0 0.0 0.00 0.00 0.00 63 1016.2
20260901010905 84 205 0.0 0.0 0.00 0.00 0.00 62 1016.1
20260901010404 85 205 0.0 0.0 0.00 0.00 0.00 61 1016.0
20260901005905 85 205 0.0 0.0 0.00 0.00 0.00 61 1015.9
20260901004905 86 205 0.0 0.0 0.00 0.00 0.00 60 1015.9
20260901004405 86 205 0.0 0.0 0.00 0.00 0.00 59 1015.9
20260901003905 87 205 0.0 0.0 0.00 0.00 0.00 58 1016.0
20260901003405 87 205 0.0 0.0 0.00 0.00 0.00 57 1015.9
20260901002904 87 205 0.0 0.0 0.00 0.00 0.00 57 1015.9
20260901001905 88 205 0.0 0.0 0.00 0.00 0.00 56 1015.8
20260901001405 88 205 0.0 0.0 0.00 0.00 0.00 55 1015.9
20260901000904 89 205 0.0 0.0 0.00 0.00 0.00 55 1015.8
20260901000406 89 217 0.0 0.0 0.00 0.00 0.00 54 1015.8
20260831235904 90 205 0.0 0.0 0.00 0.00 0.00 53 1015.8
20260831235404 90 215 0.0 0.0 0.00 0.00 0.00 53 1015.8
20260831234905 91 214 0.0 0.0 0.00 0.00 0.00 52 1015.7
20260831234404 91 158 0.0 2.0 0.00 0.00 0.00 51 1015.7
20260831233904 92 180 0.0 0.0 0.00 0.00 0.00 50 1015.7
20260831233404 92 227 2.0 8.0 0.00 0.00 0.00 50 1015.7
20260831232905 92 219 1.0 10.0 0.00 0.00 0.00 49 1015.7
20260831232405 92 203 3.0 7.0 0.00 0.00 0.00 49 1015.7
20260831231904 92 192 1.0 10.0 0.00 0.00 0.00 49 1015.7
20260831230904 92 141 1.0 8.0 0.00 0.00 0.00 48 1015.8
20260831230405 92 206 1.0 6.0 0.00 0.00 0.00 48 1015.8
20260831225904 92 228 2.0 9.0 0.00 0.00 0.00 47 1015.8
20260831225404 92 222 2.0 12.0 0.00 0.00 0.00 48 1015.8
20260831224904 93 151 3.0 9.0 0.00 0.00 0.00 48 1015.9
20260831223905 94 205 4.0 9.0 0.00 0.00 0.00 47 1015.9
20260831223405 94 190 0.0 12.0 0.00 0.00 0.00 46 1015.9
20260831222904 95 182 1.0 6.0 0.00 0.00 0.00 44 1015.8
20260831221905 96 192 2.0 9.0 0.00 0.00 0.00 42 1015.9
20260831221405 97 240 3.0 12.0 0.00 0.00 0.00 41 1015.9
20260831220904 97 217 2.0 7.0 0.00 0.00 0.00 42 1015.9
20260831215905 97 191 1.0 10.0 0.00 0.00 0.00 42 1015.9
20260831215405 97 242 0.0 9.0 0.00 0.00 0.00 43 1015.9
20260831214905 96 173 1.0 6.0 0.00 0.00 0.00 43 1015.9
20260831213904 97 167 1.0 12.0 0.00 0.00 0.00 43 1016.0
20260831213404 97 185 3.0 10.0 0.00 0.00 0.00 43 1016.0
20260831212404 97 157 4.0 9.0 0.00 0.00 0.00 44 1016.1
20260831211904 97 134 1.0 8.0 0.00 0.00 0.00 45 1016.1
20260831211405 98 222 4.0 12.0 0.00 0.00 0.00 42 1016.1
20260831210904 98 160 1.0 8.0 0.00 0.00 0.00 43 1016.2
20260831205904 98 191 3.0 9.0 0.00 0.00 0.00 43 1016.2
20260831205404 98 184 2.0 8.0 0.00 0.00 0.00 45 1016.3
20260831204905 97 213 1.0 3.0 0.00 0.00 0.00 45 1016.3
20260831203904 97 231 3.0 12.0 0.00 0.00 0.00 44 1016.5
20260831203404 98 205 4.0 10.0 0.00 0.00 0.00 44 1016.5
20260831202404 97 183 1.0 6.0 0.00 0.00 0.00 45 1016.7
20260831201904 97 196 1.0 7.0 0.00 0.00 0.00 47 1016.7
20260831200904 97 135 1.0 8.0 0.00 0.00 0.00 45 1016.8
20260831195904 97 172 5.0 10.0 0.00 0.00 0.00 44 1017.0
20260831195404 97 158 2.0 7.0 0.00 0.00 0.00 47 1017.1
20260831194904 97 165 2.0 7.0 0.00 0.00 0.00 46 1017.1
20260831194404 97 140 0.0 9.0 0.00 0.00 0.00 46 1017.1
20260831193904 96 193 2.0 9.0 0.00 0.00 0.00 45 1017.1
20260831192404 96 197 4.0 9.0 0.00 0.00 0.00 46 1017.2
20260831191904 96 179 1.0 8.0 0.00 0.00 0.00 46 1017.1
20260831191404 96 222 5.0 8.0 0.00 0.00 0.00 45 1017.2
20260831190905 96 175 4.0 12.0 0.00 0.00 0.00 47 1017.2
20260831190404 96 196 2.0 9.0 0.00 0.00 0.00 47 1017.3
20260831185904 96 152 3.0 9.0 0.00 0.00 0.00 48 1017.4
20260831185404 95 180 2.0 8.0 0.00 0.00 0.00 48 1017.4
20260831184904 95 251 1.0 7.0 0.00 0.00 0.00 50 1017.4
20260831184405 95 219 2.0 10.0 0.00 0.00 0.00 50 1017.6
20260831183904 95 239 2.0 9.0 0.00 0.00 0.00 49 1017.5
20260831183404 95 188 1.0 8.0 0.00 0.00 0.00 51 1017.6
20260831182904 95 227 3.0 9.0 0.00 0.00 0.00 49 1017.7
20260831182404 95 186 0.0 10.0 0.00 0.00 0.00 49 1017.7
20260831181904 95 168 2.0 8.0 0.00 0.00 0.00 50 1017.8